KC2G Weather Reports


time (UTC)temp
C
wind
direction
speed
KPH
gust
KPH
rain 1hr
cm
rain 24hr
cm
rain mn
cm
humidity
%
barometer
mb
20260504081715 6 0.0 0.0 0.00 0.00 0.00 80 1013.2
20260504081645 6 0.0 0.0 0.00 0.00 0.00 80 1013.2
20260504081554 6 0.0 0.0 0.00 0.00 0.00 80 1013.2
20260504050516 5 0.0 0.0 0.00 0.00 0.00 85 1012.5
20260504044555 5 0.0 0.0 0.00 0.00 0.00 85 1012.5
20260504043618 5 0.0 0.0 0.00 0.00 0.00 85 1012.3
20260504043055 5 0.0 0.0 0.00 0.00 0.00 85 1012.3
20260504041555 5 236 0.0 1.6 0.00 0.00 0.00 85 1012.1
20260504040057 6 0.0 0.0 0.00 0.00 0.00 81 1012.1
20260504040055 5 0.0 0.0 0.00 0.00 0.00 85 1012.1
20260504034635 6 0.0 0.0 0.00 0.00 0.00 84 1012.0
20260504034555 6 0.0 0.0 0.00 0.00 0.00 84 1012.0
20260504033055 6 0.0 0.0 0.00 0.00 0.00 81 1012.1
20260504032901 6 273 0.0 1.6 0.00 0.00 0.00 77 1011.9
20260504031555 6 0.0 0.0 0.00 0.00 0.00 78 1012.0
20260504030055 6 273 0.0 1.6 0.00 0.00 0.00 77 1011.9
20260504025700 7 0.0 0.0 0.00 0.00 0.00 72 1011.9
20260504024555 7 267 0.0 1.6 0.00 0.00 0.00 73 1011.9
20260504023055 7 0.0 0.0 0.00 0.00 0.00 72 1011.9
20260504021554 7 0.0 0.0 0.00 0.00 0.00 66 1011.8
20260504020055 8 0.0 0.0 0.00 0.00 0.00 66 1011.7
20260504015307 9 0.0 0.0 0.00 0.00 0.00 59 1011.3
20260504014657 8 0.0 0.0 0.00 0.00 0.00 60 1011.5
20260504014554 8 0.0 0.0 0.00 0.00 0.00 60 1011.5
20260504013055 9 0.0 0.0 0.00 0.00 0.00 59 1011.3
20260504011735 10 0.0 0.0 0.00 0.00 0.00 56 1011.2
20260504011555 10 0.0 0.0 0.00 0.00 0.00 56 1011.2
20260504010055 10 0.0 0.0 0.00 0.00 0.00 56 1010.9
20260504004555 11 0.0 0.0 0.00 0.00 0.00 50 1010.7
20260504003055 11 129 0.0 1.6 0.00 0.00 0.00 45 1010.5
20260504001654 13 188 0.0 1.6 0.00 0.00 0.00 38 1009.8
20260504001554 12 215 0.0 1.6 0.00 0.00 0.00 42 1010.2
20260504000142 12 184 0.0 1.6 0.00 0.00 0.00 39 1010.0
20260504000054 12 184 0.0 1.6 0.00 0.00 0.00 39 1010.0
20260503234554 13 188 0.0 1.6 0.00 0.00 0.00 38 1009.8
20260503234452 13 302 1.6 3.2 0.00 0.00 0.00 33 1009.4
20260503233055 13 189 1.6 1.6 0.00 0.00 0.00 35 1009.5
20260503231554 13 302 1.6 3.2 0.00 0.00 0.00 33 1009.4
20260503231256 14 320 1.6 3.2 0.00 0.00 0.00 31 1009.1
20260503230055 13 300 1.6 3.2 0.00 0.00 0.00 31 1009.3
20260503224554 14 320 1.6 3.2 0.00 0.00 0.00 31 1009.1
20260503223055 14 214 1.6 3.2 0.00 0.00 0.00 33 1009.0
20260503221555 14 267 1.6 3.2 0.00 0.00 0.00 31 1009.2
20260503220902 14 265 3.2 6.4 0.00 0.00 0.00 29 1009.1
20260503220254 14 297 1.6 4.8 0.00 0.00 0.00 30 1009.1
20260503220055 14 297 1.6 4.8 0.00 0.00 0.00 30 1009.1
20260503215028 14 265 3.2 6.4 0.00 0.00 0.00 29 1009.1
20260503214642 14 265 3.2 6.4 0.00 0.00 0.00 29 1009.1
20260503214554 14 265 3.2 6.4 0.00 0.00 0.00 29 1009.1
20260503213702 14 264 3.2 8.0 0.00 0.00 0.00 29 1009.0
20260503213524 14 281 3.2 6.4 0.00 0.00 0.00 29 1009.1
20260503213055 14 281 3.2 6.4 0.00 0.00 0.00 29 1009.1
20260503211554 14 264 3.2 8.0 0.00 0.00 0.00 29 1009.0
20260503210504 14 307 4.8 11.3 0.00 0.00 0.00 29 1009.1
20260503210056 14 289 4.8 8.0 0.00 0.00 0.00 29 1009.1
20260503204647 14 307 4.8 11.3 0.00 0.00 0.00 29 1009.1
20260503204555 14 307 4.8 11.3 0.00 0.00 0.00 29 1009.1
20260503203055 15 263 3.2 6.4 0.00 0.00 0.00 30 1009.0
20260503201641 14 305 3.2 6.4 0.00 0.00 0.00 30 1009.0
20260503201554 14 305 3.2 6.4 0.00 0.00 0.00 30 1009.0
20260503200054 13 255 3.2 8.0 0.00 0.00 0.00 30 1009.2
20260503194554 14 267 4.8 11.3 0.00 0.00 0.00 31 1009.2
20260503193201 14 339 1.6 4.8 0.00 0.00 0.00 32 1009.4
20260503193056 14 339 1.6 4.8 0.00 0.00 0.00 32 1009.4
20260503192846 13 318 3.2 9.7 0.00 0.00 0.00 34 1009.7
20260503191554 13 306 3.2 8.0 0.00 0.00 0.00 33 1009.6
20260503190055 13 318 3.2 9.7 0.00 0.00 0.00 34 1009.7
20260503184555 12 319 4.8 8.0 0.00 0.00 0.00 36 1009.9
20260503183055 12 280 3.2 6.4 0.00 0.00 0.00 35 1009.9
20260503182047 12 271 3.2 8.0 0.00 0.00 0.00 36 1010.0
20260503181555 12 271 3.2 8.0 0.00 0.00 0.00 36 1010.0
20260503180054 12 255 4.8 9.7 0.00 0.00 0.00 37 1010.1
20260503174554 12 301 4.8 9.7 0.00 0.00 0.00 38 1010.5
20260503173055 12 288 4.8 9.7 0.00 0.00 0.00 38 1010.4
20260503171554 12 292 4.8 8.0 0.00 0.00 0.00 40 1010.7